Content
SEND FEEDBACK

Daily
Averages
Monthly
Summary
United States of America

UMATAC, GUAM


Home > North America > United States > Guam
Elevation: 58 meters     Latitude: 13 17N     Longitude: 144 40E

WEATHER
 
SELECT A DAY
Number of Records: 350,330;   Date Range: 1/1/95 - 10/1/14
 
SHARE

PRINT THIS DATA

[ ← Previous Day ]
WEATHER ALMANAC - 1 NOVEMBER, 2013
[ Next Day → ]
[ °F ]   °C
Weather ElementAverageHighLow
Temperature26.4 °C30 °C (11:48 am) (10:58 am)
Dewpoint24.1 °C26 °C (12:28 am) (7:00 pm)
Humidity87.2 %100 % (12:28 am)79 % (10:48 am)
Barometer1012.2 hPa1013.9 hPa (9:33 am)1009.8 hPa (2:58 pm)
Wind Speed22.4 km/h27.8 km/h (9:33 am)
Wind Gust33.3 km/h (2:18 pm)
Weather ElementAverage
Visibility16.1 km
Wind DirectionENE (64.2 °)

Weather ElementTotal
Precipitation---
Heating Degree Days12.2 (Base 18.3)
Averaged from 78 records on 1 November, 2013
WEATHER CONDITIONS BREAKOUT
WIND DIRECTION BREAKOUT
WEATHER BY HOUR - 1 NOVEMBER, 2013
[ °F ]   °C
Local TimeTemperatureDewpointHumidityBarometerVisibilityWind DirectionWind SpeedGust SpeedPrecipitationEventsConditions
12:13 AM26 °C25 °C94 %1012.9 hPa16.1 kmEast (80°)25.9 km/hMostly Cloudy
12:18 AM26 °C25 °C94 %1012.9 hPa16.1 kmEast (80°)18.5 km/hScattered Clouds
12:23 AM27 °C25 °C89 %1012.9 hPa16.1 kmENE (70°)22.2 km/hMostly Cloudy
12:28 AM26 °C26 °C100 %1012.9 hPa16.1 kmENE (60°)24.1 km/hMostly Cloudy
12:38 AM26 °C25 °C94 %1012.5 hPa16.1 kmEast (80°)20.4 km/hScattered Clouds
12:58 AM26.1 °C24.9 °C93 %1011.5 hPa16.1 kmEast (80°)20.4 km/hPartly Cloudy
1:23 AM26 °C25 °C94 %1012.2 hPa16.1 kmEast (80°)20.4 km/hMostly Cloudy
1:43 AM26 °C25 °C94 %1012.2 hPa16.1 kmENE (70°)22.2 km/hMostly Cloudy
1:48 AM26 °C25 °C94 %1012.2 hPa16.1 kmEast (80°)24.1 km/hMostly Cloudy
1:53 AM26 °C25 °C94 %1012.2 hPa16.1 kmEast (80°)22.2 km/hMostly Cloudy
1:58 AM26.4 °C24.9 °C91 %1011.2 hPa16.1 kmEast (80°)20.4 km/hMostly Cloudy
2:03 AM26 °C25 °C94 %1012.2 hPa16.1 kmENE (70°)20.4 km/hMostly Cloudy
2:43 AM26 °C25 °C94 %1011.9 hPa16.1 kmEast (80°)18.5 km/hScattered Clouds
2:58 AM26.2 °C24.9 °C92 %1011.2 hPa16.1 kmEast (80°)18.5 km/hPartly Cloudy
3:28 AM26 °C25 °C94 %1011.9 hPa16.1 kmEast (80°)22.2 km/hMostly Cloudy
3:33 AM26 °C25 °C94 %1011.9 hPa16.1 kmEast (80°)25.9 km/hScattered Clouds
3:58 AM26.3 °C24.6 °C90 %1011.2 hPa16.1 kmEast (90°)22.2 km/hPartly Cloudy
4:58 AM26.1 °C24.6 °C91 %1011.2 hPa16.1 kmEast (90°)20.4 km/hClear
5:58 AM26.1 °C24.9 °C93 %1011.2 hPa16.1 kmEast (80°)22.2 km/hScattered Clouds
6:18 AM26 °C25 °C94 %1012.5 hPa16.1 kmEast (80°)16.7 km/hMostly Cloudy
6:28 AM26 °C25 °C94 %1012.5 hPa16.1 kmENE (70°)20.4 km/hScattered Clouds
6:33 AM26 °C25 °C94 %1012.5 hPa16.1 kmENE (70°)25.9 km/hMostly Cloudy
6:38 AM26 °C25 °C94 %1012.5 hPa16.1 kmEast (80°)20.4 km/hScattered Clouds
6:58 AM26.3 °C24.9 °C92 %1011.9 hPa16.1 kmENE (70°)20.4 km/hPartly Cloudy
7:58 AM27.5 °C25.8 °C90 %1012.2 hPa16.1 kmENE (70°)22.2 km/hScattered Clouds
8:33 AM28 °C26 °C89 %1013.5 hPa16.1 kmEast (80°)25.9 km/hMostly Cloudy
8:38 AM28 °C26 °C89 %1013.5 hPa16.1 kmEast (80°)24.1 km/hScattered Clouds
8:47 AM28 °C26 °C89 %1013.5 hPa16.1 kmENE (60°)20.4 km/hLight Drizzle
8:56 AM27 °C26 °C94 %1013.5 hPa16.1 kmENE (70°)25.9 km/hMostly Cloudy
8:58 AM27 °C26 °C94 %1012.9 hPa16.1 kmEast (80°)24.1 km/h0 mmMostly Cloudy
9:33 AM29 °C26 °C84 %1013.9 hPa16.1 kmENE (70°)27.8 km/hMostly Cloudy
9:38 AM28 °C26 °C89 %1013.9 hPa16.1 kmENE (70°)25.9 km/hMostly Cloudy
9:53 AM29 °C26 °C84 %1013.9 hPa16.1 kmENE (70°)24.1 km/hScattered Clouds
9:58 AM28.8 °C25.6 °C83 %1012.9 hPa16.1 kmEast (80°)25.9 km/hScattered Clouds
10:48 AM29 °C25 °C79 %NorthMostly Cloudy
10:58 AM-17.8 °C-17.8 °CNorthMostly Cloudy
11:03 AM-17.8 °C-17.8 °CNorthMostly Cloudy
11:23 AM29 °C26 °C84 %1012.9 hPa16.1 kmENE (70°)20.4 km/hMostly Cloudy
11:28 AM29 °C26 °C84 %1012.9 hPa16.1 kmEast (80°)22.2 km/hMostly Cloudy
11:38 AM29 °C26 °C84 %1012.9 hPa16.1 kmENE (70°)20.4 km/hScattered Clouds
11:48 AM30 °C26 °C79 %1012.9 hPa16.1 kmENE (70°)20.4 km/hMostly Cloudy
11:53 AM30 °C26 °C79 %1012.9 hPa16.1 kmNE (50°)25.9 km/hMostly Cloudy
11:58 AM29.8 °C25.8 °C79 %1011.9 hPa16.1 kmENE (60°)27.8 km/hMostly Cloudy
12:28 PM29 °C25 °C79 %1012.2 hPa16.1 kmENE (70°)25.9 km/hScattered Clouds
12:58 PM29.7 °C25.7 °C79 %1011.2 hPa16.1 kmENE (60°)20.4 km/hPartly Cloudy
1:13 PM29 °C26 °C84 %1011.5 hPa16.1 kmENE (60°)20.4 km/hMostly Cloudy
1:23 PM29 °C25 °C79 %1011.5 hPa16.1 kmENE (70°)20.4 km/hMostly Cloudy
1:28 PM29 °C25 °C79 %1011.5 hPa16.1 kmENE (60°)22.2 km/hMostly Cloudy
1:43 PM29 °C25 °C79 %1011.5 hPa16.1 kmENE (60°)22.2 km/hMostly Cloudy
1:48 PM29 °C25 °C79 %1011.2 hPa16.1 kmENE (60°)22.2 km/hScattered Clouds
1:58 PM29 °C25 °C79 %1010.2 hPa16.1 kmNE (50°)25.9 km/hScattered Clouds
2:03 PM29 °C25 °C79 %1011.2 hPa16.1 kmENE (60°)24.1 km/hMostly Cloudy
2:08 PM29 °C25 °C79 %1011.2 hPa16.1 kmNE (50°)20.4 km/hScattered Clouds
2:18 PM29 °C25 °C79 %1011.2 hPa16.1 kmENE (60°)27.8 km/h33.3 km/hMostly Cloudy
2:23 PM29 °C26 °C84 %1011.2 hPa16.1 kmNE (50°)22.2 km/hScattered Clouds
2:58 PM29 °C25.5 °C81 %1009.8 hPa16.1 kmNE (50°)22.2 km/hPartly Cloudy
3:13 PM29 °C25 °C79 %1010.8 hPa16.1 kmNE (50°)22.2 km/hMostly Cloudy
3:18 PM29 °C25 °C79 %1010.8 hPa16.1 kmENE (60°)22.2 km/hMostly Cloudy
3:23 PM29 °C25 °C79 %1010.8 hPa16.1 kmENE (60°)24.1 km/hMostly Cloudy
3:33 PM29 °C25 °C79 %1010.8 hPa16.1 kmENE (60°)22.2 km/hMostly Cloudy
3:38 PM29 °C25 °C79 %1010.8 hPa16.1 kmNE (50°)25.9 km/hScattered Clouds
3:58 PM28.7 °C25.1 °C81 %1010.2 hPa16.1 kmENE (60°)24.1 km/hScattered Clouds
4:58 PM27.9 °C24.8 °C83 %1010.2 hPa16.1 kmENE (60°)22.2 km/hScattered Clouds
5:03 PM28 °C25 °C84 %1011.2 hPa16.1 kmENE (60°)20.4 km/hMostly Cloudy
5:08 PM28 °C25 °C84 %1011.2 hPa16.1 kmENE (60°)18.5 km/hScattered Clouds
5:58 PM27.2 °C25.3 °C89 %1010.5 hPa16.1 kmENE (60°)18.5 km/hScattered Clouds
6:03 PM27 °C25 °C89 %1011.5 hPa16.1 kmNE (50°)24.1 km/hMostly Cloudy
6:13 PM27 °C25 °C89 %1011.9 hPa16.1 kmENE (60°)20.4 km/hScattered Clouds
6:58 PM27.1 °C24.6 °C86 %1011.2 hPa16.1 kmENE (60°)22.2 km/hPartly Cloudy
7:58 PM27.1 °C24.9 °C88 %1011.9 hPa16.1 kmNE (50°)22.2 km/hScattered Clouds
8:22 PM27 °C25 °C89 %1013.2 hPa16.1 kmENE (70°)25.9 km/hRainLight Rain
8:32 PM26 °C25 °C94 %1013.2 hPa16.1 kmNE (40°)20.4 km/hPartly Cloudy
8:58 PM26.5 °C25.3 °C93 %1012.9 hPa16.1 kmENE (60°)25.9 km/h0 mmScattered Clouds
9:25 PM27 °C25 °C89 %1013.5 hPa16.1 kmENE (60°)22.2 km/hRainLight Rain
9:35 PM27 °C25 °C89 %1013.5 hPa16.1 kmENE (60°)22.2 km/hPartly Cloudy
9:58 PM26.6 °C25 °C91 %1012.9 hPa16.1 kmENE (60°)22.2 km/h0 mmPartly Cloudy
10:58 PM26.4 °C25 °C92 %1013.2 hPa16.1 kmENE (60°)18.5 km/hPartly Cloudy
11:58 PM26.5 °C25.1 °C92 %1011.5 hPa16.1 kmNE (50°)20.4 km/hScattered Clouds
Hourly data recorded from PGUA, located 0 kilometers away from Umatac, Guam







STORIES FROM OUR PARTNERS